Wind_Speed
10 10 9 9 9 9 9 8 8 8 8 8 9 9 10 10 11 10 10 10 10 10 10 10 9 9 9 9 10 11 11 12 12 12 13 13 12 12 15 17 19 18 17 17 18 18 19 20 20 19 17 15 13 10 11 11 8 9 9 10 9 7 4 6 8 3 6 9 10 12 12 9 12 12 9 10 10 10 12 10 9 9 8 10 14 16 16 22
10 10 10 10 9 9 9 8 8 8 8 8 8 8 8 9 10 10 10 10 10 10 10 10 10 10 10 10 10 10 12 13 13 14 14 13 12 12 12 15 18 18 17 16 15 16 17 18 19 19 18 15 13 11 11 12 12 10 10 12 9 3 1 4 6 4 5 7 9 11 12 9 9 10 10 12 10 11 12 10 10 10 11 12 14 16 18 22
10 11 10 10 10 10 9 8 8 8 8 8 9 8 8 9 9 10 10 10 10 9 10 10 10 10 10 10 10 11 12 12 14 16 14 13 12 11 10 12 16 17 17 15 13 14 15 15 17 18 16 13 12 12 11 13 13 11 11 12 9 2 2 2 3 3 5 5 8 10 11 11 10 8 10 11 10 11 11 11 12 10 11 12 13 16 18 22
10 10 11 11 11 10 10 9 8 8 8 8 9 9 9 9 9 10 10 10 10 9 9 9 10 10 10 10 10 11 11 11 16 15 13 15 13 10 10 11 14 16 17 16 14 14 15 16 17 16 14 13 13 13 12 13 12 10 11 11 10 5 0 1 2 4 4 3 6 9 10 10 8 8 9 10 10 11 11 11 13 12 10 11 12 16 18 22
10 10 11 11 11 11 11 10 9 8 8 8 9 9 9 9 9 9 10 10 9 9 9 8 9 9 9 10 10 12 9 8 15 14 14 16 14 11 11 11 13 15 17 18 16 16 16 17 18 17 16 14 14 15 15 13 11 10 11 12 11 7 2 2 1 3 5 3 5 9 9 7 7 10 10 10 12 12 12 11 13 13 9 8 9 15 19 22
11 11 11 11 11 11 11 10 10 9 9 9 9 9 9 9 9 9 9 10 9 9 8 7 8 8 9 9 9 12 10 9 12 12 15 16 14 12 11 12 13 14 17 19 18 18 17 17 18 19 18 17 15 16 15 13 13 13 11 9 10 7 5 3 4 4 3 3 4 7 9 8 7 10 9 9 10 11 13 12 13 13 10 8 7 11 16 20
12 12 11 11 11 11 11 11 10 9 9 9 9 9 9 9 9 9 9 9 9 8 8 7 7 7 8 8 9 10 13 17 15 11 13 15 14 14 13 14 13 13 16 18 19 19 17 18 18 18 17 17 16 16 15 13 15 17 13 9 8 7 8 6 5 6 2 2 3 4 6 9 9 10 9 10 8 8 10 14 14 12 10 10 9 9 12 18
12 12 11 11 11 11 11 11 10 10 9 9 9 9 9 9 9 9 9 8 9 8 8 8 7 7 6 7 8 7 13 20 16 14 13 13 14 14 15 15 14 13 14 17 19 18 17 17 17 16 17 16 15 15 14 13 16 19 17 11 9 8 9 9 8 7 6 7 7 5 5 8 11 10 9 10 7 8 9 13 12 11 11 12 11 11 12 17
12 12 11 11 11 12 12 12 11 10 10 9 10 9 9 9 9 9 9 9 9 8 8 8 8 7 6 7 6 5 14 18 15 18 15 13 13 13 15 16 15 14 14 16 18 19 19 17 17 15 15 15 14 15 14 15 15 16 18 15 12 11 9 11 10 8 8 8 6 4 5 9 10 9 9 9 7 9 12 12 10 11 12 12 12 12 12 16
12 12 12 11 12 12 12 12 12 11 11 10 10 10 9 9 9 9 9 9 9 8 9 8 8 7 7 7 3 5 15 16 16 19 16 16 14 12 15 16 17 16 15 16 19 21 20 17 15 14 13 13 14 16 16 17 14 9 12 15 15 14 12 12 11 10 10 8 6 5 6 8 10 10 11 12 10 10 13 12 10 11 11 11 12 13 13 14
12 12 12 12 12 12 12 13 12 11 11 11 11 10 10 10 9 9 8 8 8 8 9 9 8 7 7 7 5 9 15 14 15 18 17 18 16 14 14 15 17 18 17 17 18 21 20 17 14 13 14 14 14 15 17 20 17 12 10 13 15 16 16 15 14 12 11 12 10 9 8 8 11 11 12 13 12 12 15 14 12 12 12 11 12 14 15 16
13 13 13 13 13 13 13 13 13 12 12 12 12 12 11 11 11 10 9 8 8 8 8 9 8 8 7 8 10 12 14 13 14 16 17 18 18 16 14 15 16 18 19 17 17 20 20 17 15 15 13 13 12 11 15 18 18 17 15 15 15 15 18 19 18 16 14 15 13 10 11 12 12 14 14 12 13 17 16 14 13 13 13 12 13 15 16 18
15 15 14 14 14 13 13 14 14 13 13 13 13 13 13 12 11 11 10 9 7 7 7 7 8 8 7 8 10 12 13 13 13 14 16 17 18 18 16 15 16 17 19 18 17 18 22 19 16 18 14 11 10 9 14 15 16 18 17 17 16 16 19 19 19 19 18 18 14 12 13 14 14 17 15 12 15 19 17 16 16 16 15 14 14 16 17 19
17 17 17 17 16 15 14 14 14 14 13 13 14 15 14 13 12 11 11 9 8 6 5 5 6 7 8 9 9 9 11 12 13 14 14 16 19 19 18 18 17 16 17 19 19 19 22 21 18 19 18 16 13 10 13 13 14 17 18 19 18 19 19 18 19 20 20 19 15 14 15 15 14 17 17 15 18 19 19 20 18 17 18 17 15 16 18 20
19 19 19 19 18 16 15 14 14 14 14 13 14 15 15 14 12 11 10 9 7 5 5 5 5 6 5 7 9 7 8 9 11 12 13 15 18 19 19 20 19 18 17 18 21 23 22 21 21 20 18 19 17 13 13 13 15 16 18 20 20 21 18 16 18 20 21 19 17 18 17 16 12 14 16 17 19 20 20 21 20 21 21 19 17 17 18 20
20 20 21 20 19 18 16 14 13 14 14 13 14 15 15 14 12 12 10 8 6 4 4 3 4 3 3 3 8 6 5 5 7 10 12 14 16 19 20 20 20 19 18 18 20 24 25 23 24 22 17 17 19 16 13 14 18 18 20 21 20 22 20 17 17 20 21 18 19 20 17 14 11 13 17 18 19 20 21 21 20 23 23 19 18 17 18 19
20 20 21 21 20 19 17 15 12 13 13 13 14 15 14 14 12 12 10 7 4 2 3 3 2 1 1 5 6 5 5 5 6 7 9 12 15 18 19 19 19 18 18 19 21 24 27 28 27 22 18 19 19 17 16 18 20 20 22 23 20 21 22 20 16 18 21 20 21 21 18 15 11 13 18 20 20 21 22 22 22 23 24 21 19 17 17 19
20 20 20 21 20 20 18 16 13 12 13 13 14 14 14 13 11 10 7 5 2 1 3 3 1 2 3 6 4 5 7 6 6 6 6 9 12 15 17 18 18 17 17 19 21 23 25 26 25 20 19 21 21 21 23 22 20 20 21 22 23 21 21 22 19 17 20 23 23 21 20 18 14 14 18 20 22 23 23 22 22 24 24 22 21 19 18 18
19 20 20 21 20 19 18 16 14 13 13 13 13 13 13 11 11 10 6 3 1 1 1 4 4 2 7 10 7 7 8 7 6 5 5 6 8 12 15 17 17 16 17 18 19 21 22 22 22 23 24 26 26 26 26 22 17 18 20 21 23 22 22 22 21 18 18 22 24 23 22 19 18 17 17 19 21 22 23 23 25 25 23 23 22 21 19 17
19 20 20 20 19 19 17 16 15 14 13 12 12 11 10 10 8 7 6 2 4 5 5 7 8 8 11 14 12 9 8 7 4 3 4 5 6 8 12 15 15 14 16 17 17 19 21 23 26 29 28 26 26 25 23 21 17 15 17 21 22 23 23 20 20 19 18 20 24 25 23 20 20 19 17 19 21 24 24 24 25 26 24 23 22 22 21 18
18 19 19 18 18 18 17 16 15 14 13 12 11 9 8 9 3 6 8 6 8 8 8 10 9 10 12 14 13 10 6 4 5 5 3 4 3 6 11 13 14 16 18 17 15 17 21 26 29 29 26 22 22 23 22 21 20 17 16 18 20 23 24 20 19 21 19 18 20 23 23 23 21 20 20 22 22 24 23 23 24 26 24 21 20 21 21 19
18 18 18 18 17 17 16 16 15 14 13 12 11 8 8 9 5 8 9 7 11 10 9 10 9 11 13 12 12 10 3 1 6 9 3 4 4 8 10 12 15 17 17 18 17 18 24 29 29 25 23 21 19 20 22 22 21 19 18 18 18 19 21 20 18 20 21 19 19 20 23 25 23 22 24 24 24 23 22 22 22 24 24 21 20 21 21 21
17 18 18 18 18 18 17 16 15 14 13 12 11 10 9 9 8 9 7 5 10 11 10 10 9 11 11 10 10 7 2 2 5 10 5 5 5 11 11 12 16 16 17 22 22 21 24 26 26 24 21 21 21 19 19 22 23 21 20 20 20 17 17 18 18 19 22 22 18 19 22 24 24 24 27 27 25 22 21 21 21 23 23 21 21 22 22 22
17 17 18 18 18 18 17 16 15 14 13 12 11 10 10 9 8 8 7 4 7 11 11 9 9 11 10 9 8 5 3 7 8 8 7 6 4 12 14 12 16 18 18 22 23 23 22 18 19 24 23 21 22 21 19 20 23 24 23 22 21 19 17 18 18 17 22 23 20 19 21 24 24 24 26 26 24 23 22 23 24 24 24 21 21 22 23 22
17 18 18 18 18 18 17 15 14 13 13 12 11 10 10 9 8 7 7 4 6 11 9 7 8 9 9 7 7 5 4 7 9 10 10 7 8 12 12 12 16 18 18 21 23 25 24 18 14 19 24 24 22 23 23 21 20 22 25 25 23 21 19 18 18 18 21 24 23 22 20 20 23 25 25 25 26 26 24 26 25 24 25 22 21 24 25 24
18 18 18 18 18 18 18 16 14 13 11 11 10 10 10 8 8 6 5 5 9 12 6 4 4 5 6 4 4 3 1 5 9 10 10 7 9 10 9 11 15 17 16 17 21 24 24 21 17 16 21 24 24 24 23 22 21 20 20 22 23 24 22 19 19 20 21 20 20 23 21 18 21 24 26 26 28 28 27 26 26 27 28 24 22 24 25 24
19 19 19 19 18 17 17 16 15 13 9 10 10 9 9 6 6 4 4 7 9 10 8 6 5 5 5 5 6 2 2 8 8 7 8 8 7 9 9 10 12 15 15 14 19 22 21 22 22 19 19 22 26 26 23 22 23 21 15 14 18 22 25 23 20 20 21 20 19 23 24 22 23 23 24 27 29 29 28 28 26 29 31 27 23 23 24 24
19 20 20 19 19 17 16 14 14 13 10 9 9 8 7 5 3 1 2 6 5 8 8 9 9 8 7 6 7 4 8 12 6 7 11 9 6 7 8 9 12 13 13 16 19 17 17 22 25 23 20 23 26 24 22 21 22 21 15 12 13 16 20 24 24 21 19 20 22 24 25 21 21 23 22 25 30 31 31 30 27 28 30 29 25 24 25 25
19 20 20 19 19 17 16 14 13 12 10 8 7 6 4 2 1 2 5 6 2 5 6 4 6 8 5 5 7 6 7 9 7 11 12 7 8 9 9 11 12 12 13 17 20 17 14 18 23 25 23 23 24 22 20 22 23 20 17 14 12 11 15 19 23 25 22 21 23 26 26 20 17 22 23 23 29 32 32 31 28 29 30 30 28 26 28 27
19 20 19 19 18 16 15 14 12 11 9 7 5 3 1 2 3 5 8 4 4 5 6 3 3 4 1 2 7 5 5 7 9 11 10 8 11 10 10 12 11 12 14 16 20 21 18 15 17 24 26 21 20 21 21 22 22 19 19 18 14 13 15 16 19 24 20 19 26 28 28 24 17 19 24 25 28 28 29 31 29 29 30 30 31 28 28 28
20 20 19 18 17 15 13 12 12 10 7 6 4 2 3 3 4 9 6 3 4 4 4 2 2 3 1 3 7 3 3 5 5 6 7 7 10 9 9 11 11 13 15 17 20 21 22 21 18 20 22 21 19 20 22 21 20 20 19 19 17 15 16 16 19 21 15 15 24 29 30 29 23 20 22 23 25 26 26 28 29 30 29 29 31 31 29 29
22 21 19 16 14 13 11 10 11 10 7 5 2 3 3 3 9 10 5 4 4 2 4 1 2 1 1 3 6 3 3 5 3 4 7 6 7 8 9 8 8 11 14 16 17 19 22 26 24 19 19 21 21 21 22 22 22 22 21 20 18 14 13 13 14 16 15 17 21 24 27 29 29 28 24 20 22 25 25 25 26 29 29 29 31 31 30 29
22 19 17 15 13 11 10 9 9 8 7 4 1 3 2 7 9 6 2 2 2 3 4 3 0 1 3 4 6 4 5 7 5 4 7 8 8 8 9 9 9 10 11 11 12 15 19 22 26 25 20 21 24 23 24 24 24 25 24 23 19 12 9 10 10 11 14 19 22 23 24 26 29 31 29 25 22 21 24 26 26 27 28 30 31 31 30 29
20 17 15 13 10 9 8 7 7 6 5 3 1 3 7 10 7 5 2 1 2 1 2 4 4 5 6 5 5 5 6 7 5 5 6 8 10 11 9 7 11 12 10 12 12 13 14 15 21 29 26 22 25 27 24 22 22 25 25 23 22 18 12 9 9 11 13 15 20 24 23 22 25 27 27 29 27 23 22 24 25 27 27 28 29 30 31 29
19 15 13 11 9 7 7 6 5 4 3 2 3 6 10 10 6 4 2 3 3 3 3 6 6 7 7 5 3 4 6 4 2 3 7 8 9 11 9 1 5 8 8 11 12 13 15 14 12 20 25 23 25 28 26 23 23 23 25 26 27 25 20 15 13 15 17 15 16 22 24 24 24 22 22 25 28 29 26 21 22 25 27 27 28 30 30 30
18 15 12 10 9 9 8 6 4 2 3 6 5 9 6 4 3 4 1 1 3 3 4 7 6 6 8 6 1 2 5 6 5 4 7 8 6 6 6 4 5 5 5 8 10 10 15 17 10 10 17 21 23 26 27 28 25 21 25 29 28 24 22 21 18 17 19 14 13 19 23 24 23 21 23 23 24 29 30 26 22 22 26 28 28 28 28 30
16 14 10 9 10 9 8 6 2 2 7 7 6 8 3 3 3 3 3 4 4 5 6 8 6 5 6 6 4 2 1 6 6 5 7 7 7 5 2 6 9 8 7 8 9 8 9 15 13 10 13 17 19 22 25 29 29 27 26 25 24 24 24 23 18 13 14 11 11 18 20 21 21 19 23 25 24 26 28 30 27 23 24 26 27 25 23 26
16 14 8 9 11 9 7 3 2 6 7 4 8 8 3 4 4 5 8 7 4 4 6 8 5 3 5 7 5 1 3 6 3 4 7 5 6 7 3 4 8 9 11 11 9 8 8 14 15 12 13 15 17 21 23 26 32 35 30 21 22 25 25 24 18 12 11 9 8 15 18 19 20 18 20 24 26 26 25 28 31 29 26 26 26 23 23 26
17 12 6 9 13 9 5 3 7 8 3 5 7 5 2 3 5 5 6 4 3 4 5 7 6 4 5 6 6 3 4 7 5 4 6 4 3 4 4 6 6 7 10 11 10 9 9 13 17 15 13 14 18 23 24 25 29 34 35 29 25 25 25 26 23 17 13 9 8 12 14 17 20 18 18 21 26 29 29 27 30 32 32 31 29 26 27 27
13 9 5 13 14 7 2 6 8 5 2 6 3 0 0 2 4 5 3 1 2 4 4 3 4 5 5 5 7 6 3 5 6 5 5 4 5 4 3 7 8 7 9 9 10 10 9 12 17 17 14 16 20 23 26 26 26 30 35 35 27 24 25 27 27 27 20 11 8 8 10 15 20 20 19 19 19 24 29 30 29 30 31 31 31 30 30 28
11 8 9 15 11 4 4 6 4 2 3 3 1 1 3 4 1 4 3 1 1 3 3 3 4 5 6 5 6 7 6 6 9 9 9 9 8 7 6 7 9 9 9 8 9 10 10 13 17 18 17 19 22 22 23 26 26 29 33 35 31 26 26 23 21 28 28 20 14 9 8 13 16 19 22 22 17 16 22 28 29 29 29 28 29 30 31 31
7 5 10 10 5 5 8 5 1 1 1 2 4 2 4 5 2 3 3 2 1 2 3 3 5 5 6 8 8 7 8 11 12 12 13 11 8 8 8 8 10 10 9 9 9 10 13 13 14 18 19 19 20 19 23 24 25 28 29 31 32 31 31 25 18 24 28 25 22 16 13 14 11 11 15 19 20 16 15 20 25 26 27 28 27 28 30 31
6 5 6 3 4 10 10 3 1 2 2 4 5 3 1 1 1 2 3 2 1 2 3 3 6 7 5 6 7 7 9 13 13 13 13 12 9 10 9 10 11 8 7 9 9 11 17 15 13 17 18 20 21 19 23 24 23 26 27 27 31 34 35 30 23 25 27 25 24 17 13 15 10 10 10 12 16 17 13 15 19 20 22 25 28 28 28 30
7 6 5 3 7 11 7 3 1 1 1 2 2 1 2 3 2 2 1 4 2 2 5 6 6 7 6 6 8 10 10 11 11 11 12 11 13 15 13 12 12 7 5 9 9 7 12 14 15 16 13 15 19 19 23 26 25 28 29 28 30 32 34 35 30 28 26 24 24 17 14 18 14 11 9 9 11 12 12 13 15 17 18 20 24 27 27 28
8 10 8 5 4 7 7 5 3 1 2 4 3 2 1 2 4 3 3 3 4 2 4 6 5 6 8 9 10 11 10 12 12 11 11 11 12 13 10 10 10 7 7 14 15 10 8 10 15 16 12 12 12 9 12 16 18 24 28 31 33 32 33 35 33 31 26 21 23 21 18 24 23 14 11 11 10 10 10 10 12 14 16 18 19 22 26 28
6 6 5 4 6 6 6 6 5 3 3 3 2 2 2 2 5 3 2 1 4 2 3 6 6 7 8 9 10 11 10 11 12 12 13 13 13 12 10 10 10 9 12 17 16 12 11 12 16 19 20 20 16 10 7 9 12 15 20 26 31 33 36 35 30 30 28 21 24 27 20 18 22 22 19 16 15 15 13 11 12 11 12 17 18 17 20 24
3 3 2 3 4 6 5 6 6 4 3 2 2 0 1 1 3 4 0 0 3 3 4 7 7 6 8 8 8 9 9 9 11 14 14 13 13 13 12 12 11 12 16 15 11 11 13 16 18 21 24 26 26 24 20 18 18 17 19 22 21 23 32 37 32 28 26 22 24 28 23 17 17 17 17 16 14 14 14 12 12 12 11 12 15 15 16 19
3 1 4 8 5 4 3 4 6 5 4 3 3 1 2 2 2 3 1 2 4 3 4 7 7 6 6 6 7 8 8 8 10 13 12 11 12 12 12 12 12 14 16 12 9 11 14 17 18 20 23 25 25 26 25 23 22 21 22 23 21 18 20 29 31 29 29 27 24 26 25 23 19 12 11 13 10 7 9 8 8 11 12 9 8 10 13 15
6 4 5 5 3 2 2 3 4 4 4 5 4 3 2 2 2 2 2 3 3 2 3 5 6 5 5 6 7 7 7 8 9 10 10 11 12 12 13 13 13 13 14 13 13 13 15 17 17 18 22 23 23 24 24 24 25 25 25 25 24 19 17 21 24 25 30 32 29 26 24 25 25 15 7 12 11 3 3 7 8 10 11 7 6 8 11 13
9 6 4 4 3 3 3 4 4 4 4 4 3 3 2 1 2 2 2 3 3 4 5 4 5 6 6 7 8 8 8 9 11 11 11 12 13 13 14 14 13 12 12 14 14 13 15 17 15 16 21 23 22 23 24 24 26 28 27 26 26 24 23 25 24 23 27 31 31 29 27 28 29 20 11 12 13 5 1 4 5 6 6 8 8 5 6 12
10 8 7 7 4 4 5 4 3 4 3 3 2 1 2 1 2 3 3 3 4 5 6 5 5 7 7 8 8 9 10 10 12 13 13 14 15 15 15 14 13 12 13 13 13 13 16 18 16 15 20 22 20 20 22 24 27 31 31 30 28 27 26 27 28 25 25 28 30 31 31 30 29 25 19 17 16 12 6 4 5 5 9 17 17 6 7 14
11 10 9 8 6 6 6 4 3 3 2 2 2 1 1 1 3 4 3 3 2 4 6 7 6 7 7 8 9 10 11 12 13 15 15 17 18 18 19 19 17 17 16 16 15 15 17 20 19 17 20 22 20 19 21 22 23 28 32 32 29 29 28 28 28 27 25 26 29 31 32 29 26 26 26 23 19 15 9 7 6 6 11 18 19 13 13 17
Wind_Direction
337 334 333 331 330 330 328 326 320 315 314 309 306 302 300 298 295 294 294 290 286 281 276 269 260 252 246 242 239 234 232 230 227 228 228 229 233 229 224 222 223 223 217 213 214 212 214 217 220 225 227 228 227 219 232 243 235 235 253 255 267 281 263 53 58 101 123 146 159 145 148 159 141 134 149 141 133 150 140 140 161 153 154 172 177 173 167 175
335 332 331 329 327 325 325 325 322 320 317 313 308 303 301 298 295 294 293 293 289 285 281 276 268 256 247 242 239 237 236 233 229 229 230 230 232 232 228 225 225 225 223 218 215 213 215 220 223 227 229 229 231 228 232 245 247 240 244 257 271 286 205 52 47 45 77 130 160 154 151 161 157 151 144 137 147 156 147 151 158 159 169 171 173 174 170 176
335 332 330 329 327 324 322 319 320 321 317 314 308 304 300 295 295 294 292 291 290 290 285 280 277 266 252 242 237 239 239 239 237 231 231 232 232 233 231 228 225 224 226 220 213 212 211 217 223 227 231 230 230 233 234 241 249 251 252 268 292 322 109 65 58 52 60 117 164 164 163 176 180 159 139 146 161 153 153 162 159 168 179 177 182 183 175 175
339 335 331 330 329 326 323 320 318 317 316 315 311 308 301 295 293 290 289 287 288 290 288 286 281 274 261 247 236 237 241 251 248 233 229 233 230 230 228 228 225 219 221 217 209 210 208 211 215 217 223 226 230 233 231 236 243 250 253 266 291 309 233 158 88 98 103 128 163 168 177 184 176 162 151 159 167 157 167 173 163 175 193 189 191 189 180 175
345 342 338 336 334 331 328 325 322 317 313 314 314 312 306 300 295 290 288 284 286 287 287 289 283 280 271 254 237 235 233 249 250 235 227 232 227 222 223 225 224 216 215 215 210 209 209 210 211 207 209 216 229 236 234 236 238 246 253 261 281 308 315 249 227 132 119 122 154 164 180 190 182 172 165 172 179 169 169 174 170 181 197 194 195 189 181 176
349 347 345 342 340 339 335 334 331 323 314 310 312 311 310 309 304 295 289 286 285 283 283 285 285 282 273 264 244 230 213 223 245 236 227 229 224 215 214 218 220 215 212 212 210 211 210 210 213 210 209 214 222 234 241 242 239 247 257 262 273 278 258 249 247 224 125 113 166 179 181 181 195 183 169 184 183 155 152 166 174 181 190 186 190 185 179 179
347 346 346 344 343 341 339 339 338 332 321 312 309 309 313 313 309 301 295 292 286 283 283 282 284 281 276 268 251 231 217 229 241 238 230 228 224 214 211 216 216 215 212 211 210 212 212 210 214 212 213 219 223 232 241 244 242 243 250 257 264 255 245 242 240 246 226 160 195 217 197 181 194 188 181 202 187 129 141 166 172 181 184 176 182 184 183 184
343 342 342 342 341 339 338 338 337 334 325 317 313 312 314 311 306 302 298 294 289 288 286 281 282 279 279 268 258 238 226 234 239 239 238 232 227 217 214 216 215 214 212 211 211 212 212 210 214 210 215 224 228 235 237 239 243 243 242 249 259 253 249 242 235 248 246 225 208 193 198 198 198 186 184 208 187 121 144 168 169 179 180 170 178 184 184 184
339 339 338 339 337 336 336 335 335 331 325 321 318 315 313 307 303 301 298 296 292 289 285 281 281 279 282 268 263 246 237 241 241 238 238 236 231 219 216 215 212 212 208 208 209 209 208 209 213 207 213 230 235 239 238 235 244 248 242 243 254 254 252 246 242 244 239 242 233 195 197 207 201 184 184 197 172 140 154 167 169 174 175 172 176 179 180 181
337 335 335 335 333 332 332 333 334 330 326 322 319 318 315 310 306 302 299 297 292 288 284 279 278 278 280 270 250 242 246 246 242 238 235 233 231 221 218 215 209 207 206 205 205 206 203 205 213 210 217 237 239 240 235 230 238 252 246 244 249 250 249 245 243 239 233 239 240 231 223 208 204 197 192 188 170 156 158 163 174 170 168 174 174 173 175 176
334 331 330 329 329 328 328 329 329 329 329 324 321 319 318 317 314 311 304 297 292 288 283 280 281 274 272 264 234 242 251 249 245 241 235 230 230 224 219 217 211 204 202 204 204 205 200 199 208 214 227 239 237 241 240 233 239 246 254 256 250 248 247 242 238 233 231 230 218 223 231 213 211 211 200 190 178 170 165 166 175 170 168 176 176 175 173 170
332 330 328 326 324 323 323 324 323 325 328 328 326 321 320 322 322 320 313 304 295 287 283 282 283 276 271 259 246 251 256 252 249 245 236 230 227 224 219 216 212 204 201 200 203 204 197 196 207 208 221 239 232 243 248 238 240 244 249 258 257 252 247 242 237 230 228 234 223 216 234 228 213 211 203 192 193 185 174 177 177 172 176 180 179 178 176 173
334 333 331 329 326 322 319 317 318 321 323 327 327 324 323 323 326 325 319 314 304 293 285 283 286 285 279 264 254 256 259 255 251 246 239 233 227 224 218 211 209 204 201 197 199 204 197 196 210 210 215 236 226 242 248 235 235 239 242 251 254 253 248 241 235 229 226 232 224 203 226 232 212 213 203 177 197 192 175 186 184 175 181 184 182 179 179 182
334 333 331 330 329 326 320 315 314 316 317 320 322 324 324 323 326 324 320 316 308 303 295 293 293 288 283 276 266 258 258 257 251 247 242 235 229 225 220 213 210 208 206 200 196 201 199 199 208 213 222 227 224 255 258 237 234 235 237 244 245 247 249 239 228 224 222 226 220 203 222 235 213 211 204 182 197 196 182 191 187 180 187 186 185 182 182 186
333 332 330 330 330 329 324 318 314 312 313 314 316 320 323 323 324 324 325 318 309 308 305 302 291 298 312 290 281 274 262 258 252 248 242 236 230 226 223 220 218 215 216 212 204 200 197 202 210 212 222 224 225 253 261 237 231 228 229 234 234 239 248 241 223 216 217 218 211 209 226 235 208 198 210 206 202 196 194 195 185 185 191 188 185 184 185 186
332 331 331 330 330 330 327 322 317 313 312 312 313 317 321 323 323 327 329 323 317 309 299 296 288 323 54 281 286 294 278 269 261 252 243 237 230 226 223 221 222 220 217 216 214 206 196 201 209 210 217 223 225 237 245 235 227 223 225 230 229 229 238 240 222 212 215 215 209 214 225 229 210 196 211 214 199 194 200 199 192 189 188 189 188 186 186 185
330 330 330 329 330 329 328 325 319 315 313 313 314 316 320 322 325 329 329 326 318 292 283 271 283 349 225 256 283 302 300 296 280 265 252 241 230 227 224 222 223 220 214 213 216 212 206 205 203 205 214 218 221 223 229 230 221 218 221 228 231 228 231 234 223 210 211 214 215 218 221 225 218 200 213 215 199 198 202 200 199 192 186 190 190 188 189 188
329 329 329 328 328 328 328 326 321 317 314 314 314 316 320 321 325 327 324 321 293 295 317 253 156 32 264 247 267 296 302 305 297 283 262 248 236 229 224 223 223 218 212 212 216 213 212 211 204 207 216 215 215 213 217 222 218 218 218 222 230 230 229 230 226 214 210 215 218 218 220 224 221 214 224 217 200 201 203 204 205 193 188 192 189 191 193 191
329 329 329 328 327 327 327 326 324 320 317 317 314 315 315 318 329 326 318 317 253 128 339 234 204 236 234 236 263 289 294 299 302 291 269 255 237 228 220 220 224 219 210 210 217 213 208 206 204 210 215 212 212 211 216 221 221 226 226 225 228 230 231 230 230 223 211 216 220 219 221 221 221 225 222 205 201 208 206 210 207 191 191 194 188 192 195 195
329 328 329 330 329 329 329 328 327 322 320 320 314 313 314 325 342 320 304 289 240 231 239 243 244 247 238 244 268 283 286 294 296 279 270 253 227 219 218 216 218 214 204 206 215 211 204 205 208 212 213 213 215 216 221 226 232 239 238 235 231 231 233 229 230 227 213 218 225 224 225 224 220 223 214 198 210 218 210 214 206 189 194 196 187 193 196 195
328 328 331 332 331 331 331 332 331 325 324 320 317 321 318 324 313 250 279 282 265 259 253 258 255 253 250 250 265 271 276 309 297 281 254 236 203 190 212 208 203 209 202 201 210 205 205 212 215 216 215 216 219 222 225 228 235 243 243 243 237 231 234 230 228 228 216 218 231 228 228 230 224 221 211 201 216 224 213 213 207 195 199 197 188 195 197 193
329 329 331 333 333 333 333 333 332 328 326 322 322 326 314 314 290 263 279 271 272 274 262 264 253 250 256 253 259 263 272 15 292 292 253 193 166 173 214 214 198 210 206 199 204 202 210 220 220 219 218 219 222 223 225 228 233 236 237 242 243 234 232 231 229 229 221 220 231 230 229 232 230 224 214 214 230 230 214 210 210 205 203 196 192 196 197 196
331 331 332 334 333 332 333 332 331 328 327 326 323 320 312 308 301 288 282 262 279 281 265 259 249 251 255 254 253 246 244 173 241 290 261 173 169 182 208 223 207 213 211 204 207 205 214 225 222 219 219 219 222 223 222 226 229 231 232 235 239 235 232 230 227 228 227 228 233 233 233 234 232 227 224 234 241 227 215 211 207 210 209 201 196 196 198 199
333 332 334 334 333 331 331 331 330 328 326 326 319 313 309 302 298 291 282 280 271 268 270 257 247 257 251 250 249 220 231 207 199 266 245 153 184 211 209 221 217 218 217 211 214 217 220 228 225 221 220 220 222 222 219 222 226 228 230 232 235 234 234 235 232 229 229 230 232 240 245 239 232 227 227 234 234 222 218 214 206 212 219 216 206 200 200 199
335 335 337 334 332 329 328 330 329 329 328 323 316 310 307 301 299 290 286 298 234 239 269 268 253 266 258 254 245 219 250 236 219 248 238 177 192 217 217 224 221 221 223 217 219 227 228 226 226 221 219 220 221 222 220 221 226 229 228 231 234 236 240 242 241 241 237 230 226 232 246 243 230 227 227 224 220 219 219 212 205 206 211 217 217 208 201 199
337 337 337 333 332 328 327 329 327 331 330 319 315 309 304 302 299 293 288 281 223 214 238 263 255 263 260 249 211 200 267 241 248 254 245 227 203 202 216 225 224 224 225 224 224 230 230 225 225 223 216 218 221 223 222 219 225 231 228 230 234 239 245 246 242 243 242 237 229 225 232 245 236 225 224 222 218 220 218 208 202 205 212 217 218 214 205 200
338 336 334 331 331 327 325 325 321 327 321 306 311 307 302 301 296 303 286 263 221 198 209 228 237 235 237 215 174 143 240 226 264 286 251 247 220 208 219 219 226 229 224 227 230 229 227 223 223 222 217 219 221 223 220 214 222 231 229 230 234 236 240 242 242 243 240 243 244 231 226 239 245 233 223 220 220 222 217 212 212 218 226 223 213 212 210 205
335 333 332 330 329 324 320 317 312 313 306 300 308 302 299 293 275 235 259 262 201 170 203 232 251 250 249 240 201 214 240 222 245 281 250 243 231 220 228 227 234 238 226 225 233 229 222 222 223 221 220 223 224 222 217 214 222 230 229 233 239 237 236 236 239 244 244 246 248 237 228 233 242 238 230 220 220 221 216 218 219 218 227 229 216 209 212 213
333 331 331 329 326 321 316 312 306 305 305 308 308 302 303 293 209 197 241 264 214 177 208 240 268 255 254 265 242 241 240 216 218 252 254 257 249 226 218 231 238 244 236 230 236 237 226 224 224 223 224 225 225 222 218 221 227 230 230 236 241 241 238 233 235 240 243 246 245 237 232 239 238 230 231 227 222 220 217 218 217 214 225 235 227 214 213 214
331 330 330 328 323 319 315 311 307 305 309 316 317 323 340 132 159 231 236 219 154 185 210 221 258 248 265 243 241 258 253 226 230 247 255 255 250 241 227 231 235 243 246 240 241 240 237 236 227 225 227 225 225 225 223 225 228 229 230 234 238 239 239 238 235 237 241 243 241 237 234 242 244 228 228 231 227 221 217 217 215 211 217 229 235 226 213 210
331 329 329 327 320 320 319 312 311 313 319 324 326 25 96 138 217 249 251 203 184 200 211 254 269 242 308 215 228 275 271 247 256 246 247 245 242 243 240 240 238 241 244 241 241 239 237 238 231 228 228 224 224 225 224 224 223 223 225 227 231 231 230 235 232 229 235 241 238 235 233 239 244 233 226 229 228 224 220 217 213 208 208 218 232 229 214 209
330 330 330 325 319 319 315 307 308 312 323 328 342 79 105 230 239 240 250 239 226 178 166 162 57 149 289 228 233 285 254 247 286 240 228 228 225 220 218 231 235 235 238 234 233 233 231 233 233 230 226 221 221 222 221 220 216 217 219 219 223 222 217 224 224 221 230 240 237 232 229 235 241 237 231 229 227 224 221 218 214 212 212 213 223 229 220 210
330 330 327 323 321 319 312 307 305 307 319 319 56 112 208 254 249 237 261 241 171 113 169 204 46 335 309 262 239 266 253 256 281 258 231 222 228 226 221 239 237 232 256 259 240 230 226 225 226 228 226 217 214 215 214 211 210 213 214 212 215 218 215 216 218 222 232 236 233 229 229 234 238 237 234 232 230 225 222 221 219 218 215 211 219 232 228 214
329 327 324 324 324 319 316 313 304 299 301 290 145 163 228 246 254 259 287 63 101 88 231 253 274 281 287 271 257 261 251 264 275 256 239 223 227 223 213 249 244 231 265 279 256 243 236 226 218 220 221 214 211 214 214 213 214 215 214 216 219 221 225 224 218 222 233 236 228 222 226 232 234 233 231 230 230 229 227 221 220 220 215 208 212 223 223 213
329 327 326 329 333 337 337 328 322 304 273 164 155 213 236 248 267 277 225 92 36 341 285 278 279 275 256 230 281 271 221 234 306 261 236 226 232 222 200 264 270 230 255 267 254 250 251 251 231 216 216 214 213 215 216 220 225 219 214 219 223 222 228 240 244 238 238 243 228 217 222 231 235 236 230 227 226 226 227 224 219 218 214 206 204 213 220 215
331 332 333 342 354 359 351 341 343 299 167 135 195 231 247 270 325 13 60 116 356 328 302 290 262 240 236 213 209 273 219 240 286 281 236 220 228 225 207 250 273 237 250 271 270 260 250 250 244 219 218 218 218 217 214 218 226 221 213 219 224 222 226 240 252 251 245 247 234 221 223 226 230 236 227 221 222 222 221 222 218 214 213 205 200 211 226 223
335 334 335 359 5 359 356 353 355 152 135 132 217 243 347 334 279 319 284 267 300 300 296 288 248 223 256 248 213 173 272 267 259 256 243 216 211 210 207 269 274 259 240 251 268 275 273 263 248 227 230 228 222 221 218 218 224 226 220 218 220 221 226 235 246 248 241 245 238 228 228 221 218 224 220 215 218 218 216 216 215 212 211 205 203 213 221 213
339 336 338 8 6 357 2 9 137 129 128 161 248 256 317 327 287 275 266 269 295 292 280 273 262 260 267 262 250 236 295 281 266 257 253 222 207 214 206 272 288 282 252 237 244 261 279 272 255 235 238 238 227 225 228 224 223 229 233 226 215 216 219 225 234 240 234 239 238 230 233 229 220 215 211 211 213 213 212 213 213 212 209 204 206 209 208 205
349 358 344 350 0 358 8 87 122 108 123 254 268 254 251 313 316 294 274 275 278 271 274 271 272 266 241 260 289 304 283 284 312 307 261 237 231 241 250 263 279 303 277 245 240 258 268 264 257 247 242 244 235 226 227 228 220 223 235 239 231 226 221 218 223 233 237 242 239 227 228 232 228 219 212 214 214 213 212 211 211 213 212 209 209 207 206 210
17 46 291 311 346 355 82 97 83 65 280 259 271 352 214 304 329 322 288 229 239 259 286 292 261 249 252 273 280 266 267 294 295 288 272 266 268 266 280 273 265 284 294 266 245 256 263 259 259 257 247 239 234 223 221 226 222 217 226 231 230 232 230 225 222 224 230 242 247 236 230 230 229 224 219 218 214 213 214 213 211 212 213 215 215 213 210 210
45 62 276 294 333 10 97 71 40 359 283 263 224 300 247 223 305 351 312 265 177 245 271 280 251 261 282 286 272 263 265 280 278 273 269 265 262 256 258 275 274 279 293 280 255 251 249 251 256 256 248 235 230 227 223 225 226 223 223 224 225 226 225 226 222 219 223 232 238 246 248 239 231 218 217 218 214 213 214 214 215 213 213 215 214 213 211 209
26 351 280 287 324 75 84 60 326 81 6 214 179 221 249 231 259 343 319 320 50 263 291 292 261 267 285 280 279 280 274 272 273 272 268 263 264 262 263 280 283 284 286 267 258 252 238 242 257 252 246 242 238 233 227 227 236 240 234 230 232 228 223 227 225 216 219 225 232 242 248 248 237 203 208 218 215 214 210 208 213 215 216 216 213 211 212 209
12 325 297 319 86 95 86 76 178 74 1 212 195 232 208 151 321 350 351 326 263 277 315 303 274 268 270 278 282 281 281 278 270 265 266 263 253 251 268 290 279 281 293 262 256 262 242 236 259 259 253 255 255 248 236 237 252 255 246 240 238 231 225 229 230 225 225 220 219 226 238 239 218 173 197 219 209 207 207 201 205 210 213 215 212 210 212 210
39 29 359 25 103 101 85 58 92 69 31 122 128 285 159 153 200 165 27 326 284 294 302 285 273 270 270 283 279 272 277 279 268 260 259 255 250 251 269 289 270 262 290 243 220 251 250 234 243 255 257 248 245 246 239 236 242 243 239 236 237 235 230 227 229 234 236 231 227 225 220 222 204 154 164 192 188 197 205 202 205 209 209 209 209 210 211 211
26 29 14 3 66 103 120 103 83 123 117 106 96 65 75 290 279 188 144 305 281 274 300 283 264 265 272 276 275 272 270 267 265 264 259 251 252 256 268 282 263 248 264 240 222 230 259 249 238 242 248 237 229 234 232 235 242 239 238 237 232 232 231 226 228 233 234 244 253 246 222 214 214 204 197 195 198 212 211 202 204 207 207 204 203 207 210 212
34 24 14 9 37 69 105 90 77 132 144 131 119 75 67 339 324 303 145 298 280 263 293 284 272 274 276 271 272 275 269 262 261 263 260 253 253 256 259 264 260 250 247 242 236 241 255 257 245 242 247 248 254 276 284 292 289 265 258 251 234 230 232 229 232 238 233 238 250 247 235 222 221 223 217 213 221 226 220 214 208 202 203 201 202 204 200 203
47 334 23 130 97 57 48 48 59 107 138 161 177 86 24 43 334 310 184 160 296 311 296 270 259 267 273 272 278 281 275 267 261 260 261 257 254 259 260 258 257 256 252 248 247 249 252 254 248 246 250 252 261 275 281 285 286 276 273 269 259 254 243 232 232 239 235 234 238 235 237 245 243 226 209 207 214 211 205 207 205 199 191 190 201 206 191 186
47 339 112 137 131 55 38 48 54 72 88 101 129 104 15 15 345 309 295 286 295 318 301 272 263 265 275 286 292 293 287 274 264 265 266 264 261 261 264 262 257 257 259 257 249 244 249 254 251 250 254 255 260 269 272 273 272 270 269 267 270 277 254 233 233 237 235 237 237 228 228 237 236 218 187 180 173 173 186 175 156 166 164 151 161 183 185 186
51 70 116 137 125 70 83 79 69 74 84 94 95 72 37 12 359 326 291 300 300 284 280 287 283 276 289 298 289 286 286 275 270 271 267 266 266 262 263 266 263 256 254 250 246 243 249 254 254 256 260 260 261 265 268 268 267 266 265 262 259 259 248 237 238 238 237 238 237 231 230 230 223 217 198 177 165 105 117 151 140 148 157 148 130 145 171 183
44 57 77 82 84 96 77 63 85 91 68 74 76 43 39 39 343 330 302 304 296 270 262 274 285 282 285 287 280 279 281 278 277 277 271 266 264 261 261 263 262 257 251 248 248 244 244 250 254 260 264 262 259 261 263 264 263 262 260 257 253 249 243 238 237 239 239 237 235 232 233 235 230 228 241 224 207 207 125 163 166 155 167 178 158 134 184 193
41 49 61 69 76 88 76 60 85 95 62 49 63 20 27 18 318 332 319 279 268 268 265 264 274 283 284 284 285 284 282 280 277 276 275 271 265 262 261 258 258 260 254 251 251 245 244 251 254 258 263 260 255 257 262 262 262 260 255 250 247 245 242 237 237 241 239 232 231 228 230 237 236 233 247 254 237 226 245 262 217 203 221 204 185 183 225 206
38 47 57 73 78 78 82 69 49 75 68 36 61 52 6 340 325 340 321 276 285 297 286 281 279 282 286 286 282 279 277 277 277 275 273 271 267 264 261 257 255 256 254 252 253 250 249 254 254 250 255 259 255 253 259 263 260 253 246 243 242 242 243 242 239 242 241 233 229 226 227 233 237 240 248 254 245 234 237 237 222 258 265 225 206 222 223 200
Height
3154 3153 3152 3151 3150 3149 3148 3147 3146 3146 3145 3144 3144 3143 3142 3141 3141 3141 3140 3140 3139 3139 3139 3139 3139 3139 3139 3139 3139 3139 3139 3139 3140 3140 3139 3140 3141 3142 3142 3143 3144 3145 3147 3148 3149 3151 3153 3154 3155 3155 3156 3157 3158 3159 3160 3160 3161 3162 3162 3162 3161 3161 3161 3161 3160 3160 3160 3160 3160 3160 3162 3162 3160 3161 3161 3161 3163 3164 3165 3166 3167 3168 3168 3169 3170 3172 3174 3176
3153 3152 3151 3150 3149 3148 3147 3147 3146 3145 3144 3143 3143 3142 3141 3141 3140 3139 3139 3139 3138 3138 3138 3137 3137 3137 3138 3138 3138 3138 3138 3138 3139 3138 3138 3139 3140 3141 3142 3143 3144 3145 3146 3148 3150 3151 3152 3153 3154 3155 3156 3157 3158 3159 3161 3161 3161 3161 3163 3164 3163 3163 3161 3162 3161 3160 3160 3160 3159 3160 3162 3163 3161 3161 3161 3163 3164 3164 3165 3166 3167 3167 3167 3168 3170 3172 3174 3176
3152 3151 3150 3149 3148 3147 3146 3146 3145 3144 3143 3142 3142 3141 3140 3140 3139 3138 3138 3138 3137 3137 3137 3136 3136 3136 3137 3137 3137 3137 3137 3138 3137 3137 3138 3139 3139 3140 3141 3142 3143 3144 3146 3148 3150 3151 3152 3153 3154 3155 3157 3158 3159 3160 3161 3162 3161 3161 3163 3164 3164 3163 3161 3162 3163 3161 3160 3159 3159 3160 3162 3162 3161 3161 3161 3163 3164 3164 3166 3166 3167 3167 3167 3168 3170 3172 3174 3176
3151 3150 3149 3148 3147 3146 3145 3144 3144 3143 3142 3141 3140 3140 3139 3138 3138 3137 3137 3136 3136 3136 3136 3135 3135 3135 3135 3136 3136 3136 3137 3137 3136 3136 3137 3137 3138 3140 3140 3141 3142 3143 3145 3147 3148 3150 3151 3152 3153 3155 3157 3159 3160 3160 3161 3161 3161 3162 3163 3164 3164 3163 3161 3162 3163 3162 3162 3160 3160 3161 3161 3160 3161 3162 3163 3164 3164 3165 3167 3167 3167 3167 3167 3168 3170 3172 3174 3176
3150 3149 3148 3147 3146 3144 3143 3143 3142 3142 3141 3140 3139 3138 3138 3137 3137 3136 3136 3135 3135 3135 3134 3135 3134 3134 3134 3134 3135 3135 3137 3137 3134 3135 3136 3136 3137 3139 3140 3140 3141 3142 3144 3145 3147 3149 3150 3152 3153 3154 3156 3159 3160 3160 3160 3161 3161 3162 3163 3163 3163 3162 3161 3161 3161 3161 3161 3161 3161 3162 3162 3161 3161 3163 3164 3164 3164 3164 3166 3167 3168 3167 3167 3169 3170 3171 3173 3175
3149 3148 3147 3146 3145 3143 3142 3142 3141 3140 3139 3139 3138 3137 3136 3136 3135 3135 3134 3134 3134 3134 3133 3133 3133 3133 3133 3133 3134 3135 3136 3135 3132 3133 3134 3135 3136 3138 3139 3139 3140 3141 3142 3144 3146 3148 3150 3151 3152 3154 3155 3157 3160 3160 3160 3161 3161 3161 3162 3163 3162 3162 3162 3161 3161 3160 3160 3161 3162 3162 3162 3162 3163 3163 3164 3164 3165 3164 3165 3168 3168 3167 3168 3169 3170 3172 3173 3175
3149 3147 3146 3145 3144 3143 3141 3141 3140 3139 3138 3137 3136 3136 3135 3135 3134 3134 3133 3133 3133 3132 3132 3132 3132 3132 3132 3132 3133 3134 3135 3133 3131 3133 3133 3134 3135 3137 3138 3138 3139 3140 3141 3143 3145 3147 3149 3151 3152 3154 3156 3157 3159 3160 3161 3161 3161 3160 3161 3162 3162 3162 3162 3161 3161 3160 3160 3161 3162 3161 3160 3162 3163 3164 3164 3164 3165 3165 3165 3168 3168 3168 3169 3169 3171 3172 3174 3175
3148 3147 3145 3144 3143 3142 3141 3140 3139 3138 3137 3136 3135 3134 3134 3133 3133 3132 3132 3132 3131 3131 3131 3131 3131 3131 3131 3131 3131 3133 3132 3130 3131 3132 3133 3133 3135 3136 3137 3137 3138 3139 3141 3142 3144 3146 3149 3150 3152 3154 3156 3158 3159 3160 3161 3161 3160 3159 3159 3161 3161 3161 3161 3161 3161 3160 3161 3161 3160 3160 3161 3162 3162 3163 3164 3164 3165 3167 3167 3169 3168 3168 3169 3170 3171 3172 3174 3175
3147 3146 3145 3143 3142 3141 3140 3139 3138 3137 3136 3135 3134 3133 3133 3132 3131 3131 3131 3130 3130 3130 3130 3130 3130 3130 3130 3130 3131 3131 3130 3129 3130 3131 3132 3133 3134 3135 3136 3136 3137 3139 3140 3141 3143 3146 3148 3150 3152 3154 3157 3158 3159 3160 3160 3160 3160 3158 3159 3160 3161 3161 3161 3160 3160 3160 3161 3160 3159 3160 3161 3163 3162 3163 3165 3166 3166 3168 3168 3168 3168 3168 3169 3170 3171 3172 3174 3176
3146 3145 3144 3142 3141 3140 3139 3138 3137 3136 3135 3134 3133 3132 3131 3131 3130 3130 3129 3129 3129 3129 3128 3128 3128 3129 3129 3129 3130 3130 3127 3128 3129 3129 3131 3132 3133 3134 3135 3135 3136 3137 3139 3140 3142 3144 3147 3150 3152 3154 3156 3157 3158 3158 3158 3159 3159 3158 3159 3159 3159 3160 3160 3160 3160 3160 3160 3159 3160 3161 3162 3163 3163 3164 3165 3166 3166 3167 3168 3169 3168 3168 3169 3170 3171 3173 3174 3176
3145 3144 3143 3141 3140 3139 3138 3137 3136 3135 3134 3133 3132 3131 3130 3129 3129 3129 3128 3128 3128 3127 3127 3127 3127 3127 3128 3128 3128 3127 3126 3127 3127 3128 3129 3130 3132 3133 3134 3134 3135 3136 3138 3139 3141 3143 3146 3150 3152 3154 3155 3155 3155 3157 3157 3157 3157 3158 3159 3158 3158 3158 3158 3158 3159 3160 3160 3159 3160 3161 3163 3163 3163 3164 3164 3165 3166 3167 3168 3169 3169 3169 3170 3170 3171 3173 3174 3176
3144 3143 3142 3140 3139 3138 3137 3135 3134 3133 3133 3132 3131 3129 3129 3128 3128 3127 3127 3127 3126 3126 3126 3126 3126 3126 3126 3126 3126 3125 3125 3125 3126 3126 3127 3129 3130 3132 3133 3134 3134 3135 3137 3139 3141 3143 3145 3149 3151 3153 3154 3154 3155 3157 3155 3155 3156 3157 3158 3157 3157 3157 3157 3156 3158 3159 3159 3159 3159 3161 3163 3163 3163 3164 3164 3164 3165 3166 3168 3169 3169 3169 3170 3171 3171 3173 3174 3175
3143 3141 3140 3139 3138 3137 3136 3134 3133 3132 3131 3130 3129 3128 3128 3127 3127 3126 3126 3125 3125 3125 3125 3125 3124 3124 3124 3124 3123 3124 3123 3124 3124 3125 3125 3127 3129 3130 3132 3133 3134 3135 3136 3138 3140 3142 3144 3147 3149 3151 3153 3153 3155 3156 3152 3153 3155 3155 3156 3156 3157 3156 3155 3155 3156 3157 3158 3158 3159 3161 3161 3162 3163 3164 3164 3164 3164 3166 3167 3168 3169 3169 3170 3171 3171 3172 3174 3175
3141 3140 3139 3137 3137 3136 3134 3133 3132 3131 3130 3129 3128 3127 3126 3126 3126 3125 3124 3124 3124 3124 3124 3124 3123 3123 3123 3122 3122 3122 3122 3123 3123 3123 3124 3126 3127 3129 3130 3132 3133 3134 3135 3137 3138 3140 3142 3145 3147 3149 3150 3151 3153 3153 3151 3152 3154 3154 3156 3156 3156 3155 3153 3153 3154 3155 3157 3157 3158 3160 3160 3161 3162 3162 3162 3164 3164 3165 3167 3168 3168 3169 3170 3170 3171 3172 3173 3175
3140 3138 3137 3136 3135 3134 3133 3132 3131 3130 3129 3128 3127 3126 3125 3125 3124 3124 3123 3123 3123 3122 3122 3123 3123 3122 3122 3122 3121 3121 3121 3122 3122 3122 3123 3124 3125 3127 3129 3130 3132 3133 3135 3136 3137 3138 3140 3143 3145 3146 3148 3149 3150 3151 3151 3153 3153 3154 3154 3153 3154 3153 3152 3152 3152 3153 3155 3156 3158 3159 3159 3159 3161 3161 3160 3162 3163 3164 3166 3167 3168 3169 3170 3170 3170 3172 3172 3174
3138 3137 3135 3134 3133 3132 3131 3131 3129 3128 3127 3126 3125 3124 3124 3123 3123 3123 3122 3122 3122 3122 3122 3122 3122 3122 3123 3122 3120 3120 3121 3121 3121 3121 3122 3123 3124 3125 3126 3128 3130 3132 3133 3134 3136 3136 3138 3140 3142 3144 3147 3148 3149 3150 3152 3152 3151 3152 3152 3150 3151 3151 3151 3151 3150 3151 3154 3156 3157 3157 3158 3159 3161 3161 3159 3160 3161 3163 3165 3166 3167 3168 3169 3170 3170 3171 3172 3173
3137 3135 3134 3132 3131 3130 3129 3129 3128 3127 3126 3125 3124 3123 3122 3122 3122 3121 3121 3121 3121 3121 3121 3121 3121 3121 3122 3121 3120 3120 3120 3120 3120 3120 3121 3122 3122 3123 3125 3127 3128 3130 3132 3133 3134 3135 3137 3138 3140 3142 3144 3146 3148 3150 3150 3148 3147 3148 3149 3149 3149 3149 3150 3149 3149 3150 3152 3154 3155 3156 3157 3158 3159 3159 3157 3158 3160 3162 3164 3164 3166 3166 3168 3170 3170 3170 3171 3172
3136 3134 3133 3131 3130 3128 3127 3126 3126 3125 3124 3123 3122 3122 3121 3120 3120 3120 3120 3120 3120 3121 3121 3121 3121 3121 3121 3119 3120 3120 3119 3119 3119 3120 3120 3120 3121 3122 3124 3126 3127 3129 3130 3131 3132 3134 3136 3137 3140 3142 3143 3143 3145 3146 3145 3143 3144 3146 3146 3147 3147 3147 3147 3147 3147 3148 3150 3152 3153 3155 3155 3156 3158 3157 3156 3157 3159 3161 3162 3162 3163 3164 3166 3168 3169 3170 3171 3172
3134 3133 3131 3130 3128 3127 3126 3125 3124 3123 3122 3122 3121 3120 3119 3119 3119 3119 3119 3119 3120 3120 3121 3120 3120 3121 3120 3118 3119 3119 3119 3119 3119 3119 3119 3119 3120 3121 3123 3125 3126 3128 3129 3131 3132 3133 3135 3137 3139 3139 3139 3139 3140 3142 3142 3143 3144 3145 3145 3145 3145 3145 3145 3145 3146 3147 3149 3151 3151 3153 3153 3154 3156 3156 3155 3156 3157 3159 3160 3160 3160 3162 3165 3166 3167 3169 3170 3171
3133 3132 3130 3129 3127 3126 3125 3123 3122 3121 3121 3120 3120 3119 3118 3118 3118 3118 3118 3118 3119 3119 3120 3119 3119 3119 3119 3118 3118 3118 3118 3118 3118 3118 3118 3118 3119 3121 3122 3124 3125 3127 3129 3131 3132 3132 3134 3135 3134 3133 3135 3137 3139 3141 3142 3144 3144 3144 3144 3143 3143 3144 3143 3143 3145 3146 3147 3148 3149 3151 3152 3153 3154 3154 3154 3155 3156 3157 3157 3157 3158 3160 3163 3163 3165 3167 3168 3170
3132 3131 3129 3128 3126 3125 3124 3122 3121 3120 3119 3119 3118 3118 3118 3117 3118 3118 3117 3117 3117 3117 3118 3117 3118 3118 3117 3117 3117 3118 3118 3118 3118 3118 3118 3118 3119 3121 3122 3123 3125 3126 3128 3131 3132 3132 3133 3132 3130 3132 3135 3138 3140 3141 3142 3143 3144 3144 3144 3142 3141 3141 3141 3142 3144 3144 3145 3147 3148 3149 3151 3151 3152 3153 3154 3154 3153 3153 3154 3154 3155 3157 3160 3161 3163 3165 3166 3169
3131 3130 3128 3127 3125 3124 3123 3122 3120 3119 3118 3118 3117 3117 3117 3117 3117 3117 3117 3117 3115 3115 3116 3116 3116 3116 3116 3116 3116 3117 3118 3119 3118 3117 3117 3118 3119 3121 3123 3123 3125 3126 3128 3130 3131 3131 3130 3128 3129 3133 3136 3138 3139 3140 3141 3142 3143 3143 3143 3142 3141 3139 3140 3141 3142 3143 3143 3144 3146 3148 3149 3149 3150 3151 3152 3152 3151 3151 3151 3153 3154 3154 3156 3159 3161 3164 3165 3167
3130 3129 3127 3126 3124 3123 3122 3121 3120 3119 3118 3117 3116 3116 3115 3115 3116 3115 3116 3116 3115 3114 3114 3114 3115 3114 3114 3115 3115 3116 3117 3119 3120 3117 3116 3117 3119 3121 3122 3123 3125 3126 3127 3128 3128 3128 3127 3126 3129 3133 3135 3136 3137 3139 3140 3141 3141 3141 3142 3141 3140 3139 3140 3139 3140 3142 3142 3142 3144 3145 3146 3146 3148 3149 3149 3149 3149 3150 3150 3152 3155 3154 3154 3157 3160 3163 3165 3166
3129 3127 3126 3124 3123 3122 3121 3120 3118 3118 3117 3116 3115 3114 3114 3114 3114 3114 3114 3115 3115 3113 3112 3113 3113 3113 3113 3113 3114 3115 3116 3117 3118 3117 3115 3117 3120 3120 3121 3123 3124 3125 3125 3125 3126 3126 3125 3127 3129 3131 3133 3134 3136 3137 3138 3139 3139 3139 3140 3140 3139 3140 3139 3139 3139 3141 3141 3141 3142 3144 3143 3141 3143 3145 3146 3147 3146 3148 3150 3152 3155 3154 3154 3157 3159 3162 3163 3165
3127 3126 3124 3123 3121 3120 3119 3118 3117 3116 3115 3114 3114 3113 3113 3113 3113 3113 3113 3113 3113 3112 3111 3111 3112 3112 3112 3112 3113 3114 3115 3115 3115 3115 3114 3115 3118 3118 3120 3121 3122 3123 3124 3124 3125 3125 3124 3127 3128 3129 3131 3132 3133 3134 3135 3136 3137 3137 3137 3138 3139 3140 3139 3140 3140 3139 3137 3136 3139 3143 3141 3136 3139 3141 3143 3145 3145 3146 3148 3150 3153 3153 3153 3155 3158 3160 3161 3163
3126 3124 3123 3121 3120 3118 3117 3116 3116 3115 3114 3113 3112 3112 3112 3111 3112 3111 3111 3112 3111 3109 3110 3111 3111 3111 3111 3112 3112 3113 3115 3115 3113 3113 3113 3114 3115 3116 3118 3119 3120 3121 3122 3124 3124 3122 3123 3125 3127 3127 3128 3130 3131 3132 3133 3135 3135 3135 3135 3136 3138 3139 3139 3139 3139 3139 3136 3133 3136 3139 3137 3134 3134 3136 3138 3142 3143 3144 3146 3147 3149 3150 3150 3152 3155 3156 3159 3161
3124 3122 3121 3120 3118 3117 3115 3115 3114 3113 3113 3112 3111 3111 3110 3110 3111 3110 3111 3110 3107 3108 3110 3110 3110 3110 3110 3111 3112 3113 3115 3114 3113 3112 3112 3113 3114 3115 3116 3118 3119 3119 3120 3122 3120 3119 3120 3123 3124 3125 3127 3128 3128 3129 3130 3133 3133 3133 3134 3136 3136 3138 3139 3138 3139 3138 3136 3136 3135 3134 3135 3133 3131 3131 3134 3137 3140 3141 3144 3144 3145 3146 3147 3149 3151 3153 3157 3160
3122 3121 3119 3118 3116 3115 3114 3113 3112 3112 3112 3111 3110 3110 3109 3110 3109 3110 3111 3107 3103 3106 3109 3108 3108 3109 3109 3110 3111 3112 3113 3113 3114 3113 3111 3111 3112 3114 3115 3117 3118 3118 3119 3120 3117 3116 3118 3120 3121 3123 3125 3125 3125 3127 3129 3131 3131 3132 3134 3135 3135 3136 3137 3138 3139 3137 3137 3136 3132 3131 3132 3129 3127 3129 3131 3133 3134 3137 3139 3141 3142 3143 3144 3146 3149 3151 3155 3158
3121 3119 3118 3116 3114 3113 3112 3111 3110 3110 3110 3109 3109 3108 3108 3109 3109 3109 3110 3106 3103 3106 3108 3107 3108 3108 3109 3110 3110 3111 3112 3112 3113 3112 3111 3112 3112 3113 3115 3115 3116 3117 3117 3117 3116 3116 3117 3118 3119 3121 3122 3122 3123 3126 3128 3129 3130 3131 3133 3134 3135 3135 3135 3137 3136 3136 3137 3133 3127 3129 3130 3125 3121 3124 3128 3129 3129 3132 3135 3138 3141 3142 3142 3144 3147 3150 3153 3156
3119 3118 3116 3114 3112 3111 3109 3108 3108 3108 3108 3107 3107 3107 3107 3108 3108 3109 3107 3104 3103 3105 3106 3107 3108 3108 3109 3111 3111 3110 3111 3112 3111 3111 3111 3113 3112 3111 3113 3113 3114 3115 3115 3115 3114 3115 3115 3116 3117 3118 3118 3120 3122 3124 3126 3127 3129 3131 3132 3132 3133 3134 3135 3135 3134 3136 3135 3126 3123 3127 3129 3126 3119 3118 3123 3125 3125 3129 3132 3135 3139 3141 3140 3141 3145 3148 3151 3153
3117 3115 3114 3112 3110 3108 3107 3106 3105 3105 3106 3106 3106 3106 3107 3107 3109 3107 3102 3101 3103 3104 3105 3107 3107 3108 3109 3111 3111 3109 3110 3110 3110 3111 3112 3112 3112 3112 3112 3113 3113 3113 3113 3113 3112 3113 3113 3113 3114 3115 3116 3118 3121 3122 3124 3126 3127 3129 3130 3131 3132 3131 3133 3133 3132 3133 3128 3119 3121 3125 3128 3126 3118 3115 3120 3123 3124 3127 3129 3132 3136 3138 3139 3140 3142 3146 3148 3150
3115 3113 3111 3109 3108 3106 3106 3105 3104 3104 3104 3104 3105 3105 3106 3108 3107 3104 3100 3101 3103 3104 3106 3106 3106 3108 3109 3109 3109 3109 3109 3109 3108 3110 3111 3111 3111 3111 3112 3112 3111 3111 3110 3109 3109 3109 3110 3110 3111 3113 3114 3116 3118 3119 3121 3123 3124 3126 3127 3129 3128 3127 3128 3128 3126 3125 3121 3116 3120 3124 3125 3121 3115 3115 3120 3121 3123 3125 3127 3131 3134 3136 3138 3138 3140 3143 3145 3147
3112 3111 3109 3107 3106 3105 3104 3103 3103 3102 3102 3103 3104 3104 3107 3108 3103 3100 3100 3101 3102 3103 3105 3106 3106 3107 3108 3108 3108 3108 3108 3108 3108 3109 3109 3110 3110 3110 3110 3109 3109 3109 3107 3106 3106 3105 3105 3106 3109 3110 3111 3112 3114 3116 3117 3118 3120 3122 3123 3124 3124 3122 3122 3123 3120 3118 3116 3114 3118 3122 3121 3115 3112 3115 3118 3120 3122 3123 3125 3128 3131 3134 3136 3136 3137 3140 3142 3144
3110 3109 3107 3106 3105 3104 3103 3102 3102 3101 3101 3102 3103 3104 3107 3106 3101 3099 3101 3102 3102 3103 3104 3105 3106 3106 3107 3107 3107 3106 3108 3107 3107 3108 3108 3109 3109 3109 3109 3108 3108 3109 3109 3107 3105 3103 3101 3100 3102 3105 3106 3108 3110 3112 3114 3116 3117 3118 3120 3122 3121 3119 3118 3116 3114 3113 3112 3111 3114 3117 3114 3109 3109 3112 3115 3119 3121 3122 3124 3126 3128 3131 3133 3135 3136 3136 3139 3142
3108 3107 3105 3104 3103 3102 3101 3101 3100 3100 3101 3101 3103 3105 3105 3103 3100 3100 3102 3102 3103 3104 3105 3104 3105 3106 3106 3106 3105 3106 3107 3106 3106 3107 3107 3108 3107 3106 3107 3107 3106 3108 3109 3108 3105 3103 3101 3098 3098 3100 3103 3105 3107 3110 3113 3115 3114 3115 3118 3118 3116 3116 3117 3114 3110 3109 3109 3108 3107 3108 3107 3107 3109 3111 3114 3118 3119 3120 3122 3123 3126 3129 3131 3134 3134 3134 3136 3139
3106 3104 3103 3102 3101 3101 3100 3099 3099 3099 3100 3101 3103 3105 3103 3101 3100 3101 3101 3103 3104 3105 3105 3104 3104 3105 3104 3104 3105 3106 3106 3105 3105 3106 3106 3106 3106 3105 3105 3106 3105 3107 3108 3107 3105 3104 3101 3099 3099 3100 3102 3103 3105 3107 3110 3112 3111 3111 3113 3112 3112 3116 3118 3114 3110 3108 3108 3104 3100 3101 3102 3105 3108 3108 3110 3114 3115 3117 3120 3122 3124 3127 3128 3131 3132 3132 3134 3136
3104 3102 3101 3100 3100 3100 3099 3099 3099 3099 3099 3101 3103 3104 3103 3101 3101 3101 3101 3103 3104 3104 3105 3104 3103 3103 3103 3103 3104 3105 3105 3105 3105 3105 3104 3104 3105 3105 3106 3105 3105 3105 3106 3106 3106 3105 3103 3099 3099 3101 3102 3102 3104 3106 3107 3108 3109 3108 3106 3108 3113 3115 3116 3114 3111 3107 3106 3101 3098 3097 3097 3099 3102 3103 3105 3109 3112 3114 3116 3119 3123 3125 3127 3128 3129 3130 3132 3134
3102 3100 3100 3099 3099 3099 3099 3098 3099 3099 3100 3102 3102 3103 3103 3102 3100 3101 3101 3103 3104 3104 3105 3104 3102 3103 3104 3104 3103 3104 3105 3104 3104 3105 3104 3103 3103 3104 3106 3106 3104 3104 3103 3104 3106 3106 3105 3102 3099 3100 3102 3102 3104 3104 3104 3105 3107 3105 3103 3106 3109 3108 3109 3112 3109 3105 3103 3100 3097 3097 3096 3096 3097 3099 3102 3106 3108 3111 3114 3117 3119 3122 3124 3126 3128 3129 3131 3133
3101 3100 3100 3099 3098 3098 3098 3098 3099 3099 3101 3102 3103 3102 3102 3102 3101 3100 3101 3103 3104 3104 3104 3103 3103 3104 3105 3104 3103 3104 3104 3104 3104 3104 3103 3103 3103 3102 3104 3105 3104 3103 3102 3103 3105 3106 3107 3105 3100 3099 3102 3102 3102 3102 3102 3102 3104 3105 3104 3104 3105 3103 3103 3106 3106 3104 3102 3099 3096 3096 3095 3094 3095 3097 3101 3103 3105 3108 3110 3113 3115 3118 3120 3123 3126 3128 3130 3130
3101 3101 3102 3100 3099 3098 3098 3099 3099 3101 3102 3102 3102 3101 3102 3102 3102 3101 3101 3102 3103 3104 3103 3103 3104 3105 3104 3104 3104 3104 3104 3104 3105 3105 3104 3103 3103 3102 3103 3102 3102 3103 3102 3102 3104 3105 3106 3105 3101 3099 3101 3100 3098 3098 3100 3100 3101 3102 3101 3099 3101 3102 3102 3102 3101 3101 3102 3098 3095 3094 3091 3090 3093 3096 3099 3100 3102 3104 3107 3110 3112 3115 3118 3120 3122 3125 3128 3129
3101 3103 3102 3100 3099 3099 3098 3100 3101 3102 3103 3102 3101 3101 3102 3102 3102 3101 3101 3101 3102 3103 3102 3103 3104 3104 3104 3103 3104 3103 3103 3104 3105 3104 3104 3103 3102 3102 3101 3100 3100 3101 3101 3103 3104 3105 3105 3104 3101 3099 3098 3097 3096 3097 3099 3100 3100 3099 3097 3096 3099 3100 3100 3098 3094 3095 3099 3097 3095 3094 3091 3088 3089 3092 3096 3099 3101 3102 3104 3107 3109 3112 3115 3117 3120 3122 3125 3127
3102 3103 3101 3099 3099 3098 3098 3101 3102 3103 3103 3101 3101 3101 3101 3101 3102 3102 3101 3101 3102 3103 3102 3103 3103 3103 3104 3104 3103 3103 3104 3104 3104 3104 3102 3101 3102 3101 3099 3098 3099 3100 3101 3103 3103 3102 3101 3101 3100 3098 3097 3095 3096 3097 3098 3098 3098 3097 3096 3096 3098 3097 3096 3094 3090 3091 3095 3094 3095 3096 3093 3089 3088 3090 3095 3097 3099 3102 3103 3105 3107 3109 3112 3114 3117 3120 3122 3125
3102 3103 3100 3098 3099 3098 3099 3101 3103 3103 3102 3100 3101 3101 3100 3101 3103 3102 3103 3102 3102 3103 3103 3103 3103 3103 3103 3104 3103 3104 3104 3103 3102 3102 3102 3101 3102 3100 3097 3097 3099 3100 3102 3102 3103 3100 3099 3100 3100 3097 3096 3095 3094 3095 3096 3096 3096 3094 3093 3095 3095 3093 3094 3094 3092 3092 3091 3089 3093 3095 3093 3092 3090 3090 3095 3098 3099 3101 3102 3103 3106 3108 3109 3112 3114 3117 3119 3122
3101 3102 3101 3099 3098 3098 3100 3102 3102 3102 3102 3101 3102 3102 3100 3100 3101 3101 3103 3103 3101 3102 3103 3103 3103 3103 3102 3103 3103 3103 3103 3102 3101 3101 3101 3101 3100 3098 3097 3098 3098 3100 3101 3100 3100 3099 3098 3100 3100 3097 3095 3094 3093 3093 3093 3094 3095 3093 3092 3093 3093 3092 3093 3093 3093 3092 3088 3085 3088 3089 3089 3092 3091 3090 3095 3098 3098 3100 3102 3103 3104 3106 3108 3110 3112 3115 3117 3119
3100 3102 3101 3100 3099 3099 3099 3101 3102 3102 3102 3102 3102 3102 3102 3101 3099 3099 3101 3102 3101 3101 3102 3102 3102 3102 3102 3102 3102 3102 3102 3101 3100 3100 3100 3100 3099 3098 3099 3099 3098 3099 3100 3097 3096 3097 3098 3099 3098 3096 3093 3089 3088 3089 3090 3092 3092 3091 3091 3092 3092 3092 3091 3090 3090 3089 3086 3086 3087 3084 3084 3089 3091 3091 3095 3098 3099 3100 3101 3102 3103 3104 3106 3108 3110 3113 3115 3116
3101 3103 3103 3102 3101 3101 3100 3100 3101 3102 3102 3102 3102 3102 3102 3102 3100 3099 3099 3101 3100 3100 3101 3101 3101 3101 3101 3101 3101 3100 3100 3100 3099 3099 3098 3098 3098 3098 3098 3098 3098 3098 3097 3096 3096 3097 3097 3097 3096 3095 3093 3089 3086 3087 3089 3091 3091 3090 3090 3088 3089 3091 3089 3089 3088 3085 3085 3088 3088 3084 3084 3088 3090 3090 3093 3097 3098 3099 3100 3101 3102 3103 3104 3106 3108 3109 3111 3114
3101 3102 3102 3102 3102 3102 3101 3100 3100 3100 3101 3101 3101 3101 3101 3101 3101 3100 3099 3099 3099 3099 3100 3100 3099 3100 3099 3099 3099 3099 3098 3098 3098 3097 3096 3096 3096 3096 3096 3096 3096 3096 3094 3094 3095 3096 3096 3095 3094 3094 3092 3090 3089 3088 3090 3091 3090 3090 3088 3086 3086 3087 3086 3086 3086 3085 3087 3088 3085 3084 3087 3088 3088 3090 3092 3095 3096 3098 3099 3100 3100 3101 3103 3105 3106 3106 3108 3111
3100 3100 3099 3100 3101 3102 3102 3101 3100 3100 3100 3100 3100 3101 3101 3101 3100 3100 3099 3099 3099 3099 3099 3098 3098 3098 3098 3098 3098 3098 3097 3097 3097 3095 3095 3095 3094 3094 3095 3094 3094 3094 3093 3093 3095 3095 3095 3093 3092 3092 3090 3089 3089 3089 3089 3090 3089 3088 3087 3086 3086 3085 3083 3083 3085 3087 3089 3087 3084 3086 3088 3088 3088 3090 3091 3092 3094 3095 3096 3096 3097 3099 3101 3102 3103 3105 3108 3112
3099 3098 3098 3098 3100 3100 3100 3099 3100 3100 3100 3099 3100 3100 3100 3100 3100 3099 3099 3098 3098 3098 3098 3098 3097 3097 3097 3097 3097 3096 3096 3096 3095 3095 3094 3094 3094 3094 3094 3093 3093 3092 3092 3092 3093 3094 3093 3091 3090 3090 3088 3087 3087 3087 3087 3088 3087 3085 3085 3085 3085 3085 3085 3085 3086 3087 3087 3086 3086 3087 3088 3087 3088 3090 3090 3091 3092 3093 3094 3095 3097 3099 3100 3101 3103 3105 3109 3112
3098 3097 3097 3097 3098 3098 3098 3099 3100 3100 3100 3099 3099 3100 3100 3100 3099 3098 3097 3097 3097 3098 3097 3096 3096 3096 3095 3095 3095 3095 3095 3094 3094 3094 3093 3093 3093 3093 3093 3092 3092 3091 3091 3091 3091 3091 3091 3089 3089 3089 3087 3084 3085 3085 3085 3085 3084 3083 3082 3082 3083 3084 3085 3085 3085 3086 3086 3084 3085 3086 3086 3085 3086 3089 3090 3091 3091 3092 3093 3095 3097 3097 3098 3099 3101 3103 3105 3106
3098 3097 3096 3096 3097 3097 3098 3099 3099 3100 3101 3100 3099 3099 3098 3098 3097 3096 3096 3096 3096 3096 3095 3094 3095 3094 3094 3094 3094 3094 3094 3093 3093 3092 3092 3092 3091 3091 3091 3090 3090 3090 3089 3090 3089 3089 3089 3087 3087 3088 3085 3082 3082 3083 3082 3082 3082 3079 3077 3078 3080 3081 3082 3083 3084 3085 3084 3084 3083 3084 3083 3082 3085 3088 3088 3088 3090 3092 3093 3094 3094 3094 3095 3095 3097 3099 3100 3100
3099 3098 3096 3096 3098 3098 3098 3100 3100 3100 3100 3099 3098 3098 3097 3097 3096 3095 3095 3095 3094 3095 3094 3093 3093 3093 3093 3093 3093 3093 3092 3091 3090 3090 3090 3089 3088 3088 3088 3088 3088 3088 3088 3088 3087 3087 3087 3085 3085 3086 3083 3080 3080 3080 3080 3080 3077 3071 3071 3074 3077 3077 3078 3079 3080 3081 3081 3081 3081 3080 3081 3083 3086 3085 3084 3085 3088 3089 3090 3091 3091 3092 3093 3094 3096 3098 3099 3099